RH
90 94 95 99 99 100 100 100 99 98 96 96 94 93 95 95 99 95 84 81 86 91 98 97 96 83 73
96 95 99 100 100 100 100 99 99 97 97 98 97 94 98 96 100 96 86 84 81 78 90 100 100 99 98
100 99 100 100 100 100 99 100 98 96 93 92 96 94 100 94 95 84 86 87 85 81 85 93 100 100 100
99 100 100 100 100 99 100 100 96 90 88 82 86 88 97 91 78 73 74 74 77 82 90 90 91 94 98
100 100 99 99 99 99 100 100 97 92 78 72 70 70 87 79 63 53 49 57 64 70 75 80 83 80 76
100 100 98 97 99 99 98 97 90 89 82 73 70 62 61 64 52 44 38 38 35 44 62 74 79 77 72
100 100 99 93 95 97 96 91 83 70 74 67 61 57 58 44 45 51 53 61 67 44 34 48 72 79 79
94 96 92 86 90 89 90 87 86 78 52 59 52 53 58 56 46 57 62 76 63 88 75 58 48 48 54
64 82 86 88 89 86 85 79 67 65 59 60 55 56 62 64 81 83 70 76 83 85 94 97 93 79 68
83 73 84 80 76 79 89 95 68 60 62 66 62 59 62 71 78 80 79 72 88 82 78 80 76 77 79
58 57 73 87 77 56 62 74 84 74 61 71 78 73 79 75 74 78 72 69 73 72 65 61 60 60 76
54 49 47 55 58 42 38 41 41 44 54 54 61 87 89 77 68 64 75 76 65 64 58 55 55 57 57
55 54 63 66 50 46 46 46 46 48 52 56 63 56 60 85 76 74 70 76 57 57 55 55 58 61 57
57 61 62 43 66 63 78 79 84 88 57 55 54 55 72 71 87 86 85 87 69 59 58 59 56 53 52
66 59 54 63 68 78 82 86 82 74 82 74 58 59 65 73 89 80 72 72 74 78 71 74 79 64 64
86 76 59 68 72 84 88 86 81 74 76 89 92 95 88 65 45 79 69 78 85 89 75 92 86 85 81
77 78 72 72 74 82 84 82 84 79 78 88 94 90 75 69 68 43 90 94 94 90 94 94 94 96 92
Wind_Speed
10 10 10 10 10 11 10 10 9 7 5 5 5 5 4 3 2 3 5 5 4 6 8 10 9 10 16
9 9 9 9 10 10 10 9 8 6 3 3 4 4 5 5 3 3 5 4 4 5 7 7 16 9 6
5 7 9 8 9 10 10 9 8 6 3 3 3 4 4 6 5 3 3 3 4 4 3 4 5 16 19
8 7 8 7 9 11 11 11 9 7 6 7 5 6 7 7 4 4 6 6 3 3 2 1 2 5 8
6 5 6 6 8 9 11 10 10 9 6 6 5 5 5 6 4 4 5 7 7 7 5 4 3 2 3
7 7 8 8 10 10 9 6 4 7 6 8 8 6 7 6 6 5 5 5 5 6 5 5 5 5 5
9 9 8 11 10 10 11 8 5 4 5 6 6 6 7 7 6 3 2 0 1 2 5 5 4 4 4
8 7 9 7 9 8 7 6 4 6 7 3 5 5 6 6 6 4 3 1 1 2 2 3 3 3 3
7 9 11 11 9 7 7 7 5 5 8 3 4 4 4 4 5 7 5 3 3 3 3 4 3 4 2
4 4 5 6 8 6 6 7 4 3 5 5 5 4 2 4 5 7 6 7 7 5 4 3 2 3 3
6 5 5 6 4 6 6 7 5 3 3 6 4 3 1 1 3 7 9 8 8 8 7 6 7 6 5
8 7 7 7 6 6 6 6 6 6 6 9 2 5 3 1 2 4 7 9 9 9 9 9 10 10 10
10 8 7 7 9 7 6 5 4 4 6 6 6 5 5 2 2 3 3 6 9 10 10 10 11 12 12
9 8 8 9 8 8 6 6 4 4 6 7 8 7 5 6 6 6 6 3 5 7 8 7 9 11 13
10 10 9 9 8 8 7 7 5 4 4 5 7 8 8 9 6 8 8 8 9 10 11 11 12 13 14
12 12 11 11 10 10 9 8 7 6 6 5 4 3 4 8 13 10 8 8 7 8 8 8 10 9 10
17 16 16 13 13 10 10 9 9 8 8 8 7 7 5 4 2 7 8 5 6 6 7 9 11 12 11
Wind_Direction
257 256 265 258 252 241 239 240 244 247 254 280 296 293 265 246 301 314 307 296 329 350 360 354 356 237 229
236 244 253 246 242 241 240 244 248 250 251 276 265 251 256 273 2 299 297 296 309 321 350 60 62 81 145
226 233 234 233 225 234 242 242 236 240 237 251 228 231 241 261 279 279 300 301 305 311 331 341 49 82 81
230 221 234 240 236 236 233 233 234 240 241 220 219 208 222 254 277 276 269 278 284 290 291 291 39 53 81
220 213 217 223 223 236 232 234 239 238 227 230 221 225 236 254 284 294 293 276 262 258 248 240 227 115 77
221 226 232 239 233 221 208 197 233 239 235 229 221 232 239 242 251 269 284 289 273 246 240 241 215 205 212
236 240 239 240 229 212 211 211 218 217 188 233 239 217 232 236 229 234 284 256 6 250 230 218 210 214 209
237 237 235 227 218 228 221 205 204 223 212 238 231 217 220 221 217 205 206 181 123 86 118 162 185 188 168
221 228 231 233 220 202 185 188 209 216 213 209 227 195 202 207 196 184 203 184 138 137 141 143 172 162 185
140 157 157 190 194 191 197 200 200 210 208 194 194 175 195 211 204 205 203 194 182 188 193 203 213 223 230
179 171 171 172 193 208 199 209 197 217 219 192 188 189 217 171 212 217 218 225 226 233 237 244 252 246 247
194 194 195 195 206 206 196 200 206 215 206 199 170 193 192 165 236 242 229 233 230 233 245 248 253 253 248
202 200 194 198 200 193 182 179 181 191 197 207 220 221 211 210 265 231 215 241 242 242 249 249 249 251 255
198 190 182 193 192 195 183 183 194 213 226 226 230 232 236 241 244 255 245 246 254 247 247 244 255 259 258
191 187 181 189 192 195 192 188 204 193 203 232 232 237 243 241 253 250 250 251 257 256 261 269 265 262 257
200 195 190 193 192 196 199 198 206 214 207 202 207 226 275 276 250 244 250 255 257 264 263 276 280 273 263
210 208 205 203 196 199 203 204 212 218 217 211 210 217 239 254 269 248 226 241 249 254 254 255 273 277 275